Year,Month,Day,Hour,Minute,Value (Times are PST for temperature in C)
2018,02,22,00,00,-0.90
2018,02,22,00,01,-0.90
2018,02,22,00,02,-0.90
2018,02,22,00,03,-0.90
2018,02,22,00,04,-0.90
2018,02,22,00,05,-0.90
2018,02,22,00,06,-0.90
2018,02,22,00,07,-0.90
2018,02,22,00,08,-0.90
2018,02,22,00,09,-0.90
2018,02,22,00,10,-0.90
2018,02,22,00,11,-0.90
2018,02,22,00,12,-0.90
2018,02,22,00,13,-0.90
2018,02,22,00,14,-0.90
2018,02,22,00,15,-0.90
2018,02,22,00,16,-0.90
2018,02,22,00,17,-0.90
2018,02,22,00,18,-0.90
2018,02,22,00,19,-0.90
2018,02,22,00,20,-0.90
2018,02,22,00,21,-0.90
2018,02,22,00,22,-0.90
2018,02,22,00,23,-0.90
2018,02,22,00,24,-0.90
2018,02,22,00,25,-0.80
2018,02,22,00,26,-0.80
2018,02,22,00,27,-0.80
2018,02,22,00,28,-0.80
2018,02,22,00,29,-0.80
2018,02,22,00,30,-0.80
2018,02,22,00,31,-0.70
2018,02,22,00,32,-0.70
2018,02,22,00,33,-0.70
2018,02,22,00,34,-0.70
2018,02,22,00,35,-0.70
2018,02,22,00,36,-0.70
2018,02,22,00,37,-0.70
2018,02,22,00,38,-0.70
2018,02,22,00,39,-0.70
2018,02,22,00,40,-0.70
2018,02,22,00,41,-0.70
2018,02,22,00,42,-0.70
2018,02,22,00,43,-0.70
2018,02,22,00,44,-0.70
2018,02,22,00,45,-0.70
2018,02,22,00,46,-0.70
2018,02,22,00,47,-0.70
2018,02,22,00,48,-0.70
2018,02,22,00,49,-0.70
2018,02,22,00,50,-0.60
2018,02,22,00,51,-0.60
2018,02,22,00,52,-0.60
2018,02,22,00,53,-0.60
2018,02,22,00,54,-0.60
2018,02,22,00,55,-0.60
2018,02,22,00,56,-0.60
2018,02,22,00,57,-0.60
2018,02,22,00,58,-0.60
2018,02,22,00,59,-0.60
2018,02,22,01,00,-0.60
2018,02,22,01,01,-0.60
2018,02,22,01,02,-0.60
2018,02,22,01,03,-0.60
2018,02,22,01,04,-0.60
2018,02,22,01,05,-0.60
2018,02,22,01,06,-0.60
2018,02,22,01,07,-0.60
2018,02,22,01,08,-0.60
2018,02,22,01,09,-0.60
2018,02,22,01,10,-0.60
2018,02,22,01,11,-0.60
2018,02,22,01,12,-0.60
2018,02,22,01,13,-0.40
2018,02,22,01,14,-0.40
2018,02,22,01,15,-0.40
2018,02,22,01,16,-0.50
2018,02,22,01,17,-0.60
2018,02,22,01,18,-0.60
2018,02,22,01,19,-0.60
2018,02,22,01,20,-0.60
2018,02,22,01,21,-0.60
2018,02,22,01,22,-0.60
2018,02,22,01,23,-0.60
2018,02,22,01,24,-0.60
2018,02,22,01,25,-0.60
2018,02,22,01,26,-0.60
2018,02,22,01,27,-0.60
2018,02,22,01,28,-0.60
2018,02,22,01,29,-0.60
2018,02,22,01,30,-0.60
2018,02,22,01,31,-0.60
2018,02,22,01,32,-0.60
2018,02,22,01,33,-0.60
2018,02,22,01,34,-0.60
2018,02,22,01,35,-0.70
2018,02,22,01,36,-0.70
2018,02,22,01,37,-0.70
2018,02,22,01,38,-0.70
2018,02,22,01,39,-0.70
2018,02,22,01,40,-0.70
2018,02,22,01,41,-0.70
2018,02,22,01,42,-0.70
2018,02,22,01,43,-0.70
2018,02,22,01,44,-0.80
2018,02,22,01,45,-0.80
2018,02,22,01,46,-0.80
2018,02,22,01,47,-0.80
2018,02,22,01,48,-0.80
2018,02,22,01,49,-0.90
2018,02,22,01,50,-0.90
2018,02,22,01,51,-0.90
2018,02,22,01,52,-0.90
2018,02,22,01,53,-0.90
2018,02,22,01,54,-0.90
2018,02,22,01,55,-0.90
2018,02,22,01,56,-0.80
2018,02,22,01,57,-0.80
2018,02,22,01,58,-0.80
2018,02,22,01,59,-0.80
2018,02,22,02,00,-0.80
2018,02,22,02,01,-0.70
2018,02,22,02,02,-0.70
2018,02,22,02,03,-0.70
2018,02,22,02,04,-0.70
2018,02,22,02,05,-0.70
2018,02,22,02,06,-0.70
2018,02,22,02,07,-0.70
2018,02,22,02,08,-0.60
2018,02,22,02,09,-0.60
2018,02,22,02,10,-0.60
2018,02,22,02,11,-0.60
2018,02,22,02,12,-0.60
2018,02,22,02,13,-0.60
2018,02,22,02,14,-0.60
2018,02,22,02,15,-0.60
2018,02,22,02,16,-0.60
2018,02,22,02,17,-0.60
2018,02,22,02,18,-0.60
2018,02,22,02,19,-0.70
2018,02,22,02,20,-0.70
2018,02,22,02,21,-0.70
2018,02,22,02,22,-0.70
2018,02,22,02,23,-0.70
2018,02,22,02,24,-0.70
2018,02,22,02,25,-0.70
2018,02,22,02,26,-0.70
2018,02,22,02,27,-0.70
2018,02,22,02,28,-0.70
2018,02,22,02,29,-0.70
2018,02,22,02,30,-0.80
2018,02,22,02,31,-0.80
2018,02,22,02,32,-0.80
2018,02,22,02,33,-0.80
2018,02,22,02,34,-0.80
2018,02,22,02,35,-0.80
2018,02,22,02,36,-0.80
2018,02,22,02,37,-0.80
2018,02,22,02,38,-0.80
2018,02,22,02,39,-0.80
2018,02,22,02,40,-0.80
2018,02,22,02,41,-0.80
2018,02,22,02,42,-0.70
2018,02,22,02,43,-0.70
2018,02,22,02,44,-0.70
2018,02,22,02,45,-0.60
2018,02,22,02,46,-0.60
2018,02,22,02,47,-0.60
2018,02,22,02,48,-0.60
2018,02,22,02,49,-0.60
2018,02,22,02,50,-0.60
2018,02,22,02,51,-0.60
2018,02,22,02,52,-0.60
2018,02,22,02,53,-0.70
2018,02,22,02,54,-0.70
2018,02,22,02,55,-0.70
2018,02,22,02,56,-0.70
2018,02,22,02,57,-0.70
2018,02,22,02,58,-0.80
2018,02,22,02,59,-0.80
2018,02,22,03,00,-0.80
2018,02,22,03,01,-0.80
2018,02,22,03,02,-0.80
2018,02,22,03,03,-0.90
2018,02,22,03,04,-0.90
2018,02,22,03,05,-0.90
2018,02,22,03,06,-0.90
2018,02,22,03,07,-0.90
2018,02,22,03,08,-0.90
2018,02,22,03,09,-0.90
2018,02,22,03,10,-0.90
2018,02,22,03,11,-0.90
2018,02,22,03,12,-0.90
2018,02,22,03,13,-0.90
2018,02,22,03,14,-0.90
2018,02,22,03,15,-0.90
2018,02,22,03,16,-0.90
2018,02,22,03,17,-0.90
2018,02,22,03,18,-0.90
2018,02,22,03,19,-0.90
2018,02,22,03,20,-1.00
2018,02,22,03,21,-1.10
2018,02,22,03,22,-1.10
2018,02,22,03,23,-1.10
2018,02,22,03,24,-1.10
2018,02,22,03,25,-1.10
2018,02,22,03,26,-1.10
2018,02,22,03,27,-1.10
2018,02,22,03,28,-1.10
2018,02,22,03,29,-1.10
2018,02,22,03,30,-1.10
2018,02,22,03,31,-1.10
2018,02,22,03,32,-1.10
2018,02,22,03,33,-1.10
2018,02,22,03,34,-1.10
2018,02,22,03,35,-1.10
2018,02,22,03,36,-1.10
2018,02,22,03,37,-1.10
2018,02,22,03,38,-1.10
2018,02,22,03,39,-1.20
2018,02,22,03,40,-1.20
2018,02,22,03,41,-1.20
2018,02,22,03,42,-1.20
2018,02,22,03,43,-1.20
2018,02,22,03,44,-1.10
2018,02,22,03,45,-1.10
2018,02,22,03,46,-1.10
2018,02,22,03,47,-1.10
2018,02,22,03,48,-1.10
2018,02,22,03,49,-1.10
2018,02,22,03,50,-1.10
2018,02,22,03,51,-1.10
2018,02,22,03,52,-1.10
2018,02,22,03,53,-1.10
2018,02,22,03,54,-1.10
2018,02,22,03,55,-1.10
2018,02,22,03,56,-1.10
2018,02,22,03,57,-1.10
2018,02,22,03,58,-1.20
2018,02,22,03,59,-1.20
2018,02,22,04,00,-1.20
2018,02,22,04,01,-1.20
2018,02,22,04,02,-1.20
2018,02,22,04,03,-1.20
2018,02,22,04,04,-1.30
2018,02,22,04,05,-1.30
2018,02,22,04,06,-1.30
2018,02,22,04,07,-1.30
2018,02,22,04,08,-1.30
2018,02,22,04,09,-1.40
2018,02,22,04,10,-1.40
2018,02,22,04,11,-1.40
2018,02,22,04,12,-1.30
2018,02,22,04,13,-1.30
2018,02,22,04,14,-1.30
2018,02,22,04,15,-1.30
2018,02,22,04,16,-1.30
2018,02,22,04,17,-1.40
2018,02,22,04,18,-1.40
2018,02,22,04,19,-1.40
2018,02,22,04,20,-1.40
2018,02,22,04,21,-1.40
2018,02,22,04,22,-1.40
2018,02,22,04,23,-1.40
2018,02,22,04,24,-1.40
2018,02,22,04,25,-1.40
2018,02,22,04,26,-1.40
2018,02,22,04,27,-1.40
2018,02,22,04,28,-1.40
2018,02,22,04,29,-1.40
2018,02,22,04,30,-1.40
2018,02,22,04,31,-1.40
2018,02,22,04,32,-1.40
2018,02,22,04,33,-1.40
2018,02,22,04,34,-1.50
2018,02,22,04,35,-1.50
2018,02,22,04,36,-1.50
2018,02,22,04,37,-1.50
2018,02,22,04,38,-1.50
2018,02,22,04,39,-1.50
2018,02,22,04,40,-1.60
2018,02,22,04,41,-1.60
2018,02,22,04,42,-1.60
2018,02,22,04,43,-1.60
2018,02,22,04,44,-1.60
2018,02,22,04,45,-1.70
2018,02,22,04,46,-1.70
2018,02,22,04,47,-1.70
2018,02,22,04,48,-1.70
2018,02,22,04,49,-1.70
2018,02,22,04,50,-1.80
2018,02,22,04,51,-1.80
2018,02,22,04,52,-1.80
2018,02,22,04,53,-1.80
2018,02,22,04,54,-1.80
2018,02,22,04,55,-1.80
2018,02,22,04,56,-1.80
2018,02,22,04,57,-1.80
2018,02,22,04,58,-1.80
2018,02,22,04,59,-1.80
2018,02,22,05,00,-1.90
2018,02,22,05,01,-1.90
2018,02,22,05,02,-1.90
2018,02,22,05,03,-1.90
2018,02,22,05,04,-1.90
2018,02,22,05,05,-1.90
2018,02,22,05,06,-2.00
2018,02,22,05,07,-2.00
2018,02,22,05,08,-2.00
2018,02,22,05,09,-2.00
2018,02,22,05,10,-2.00
2018,02,22,05,11,-2.00
2018,02,22,05,12,-2.00
2018,02,22,05,13,-2.00
2018,02,22,05,14,-2.00
2018,02,22,05,15,-2.00
2018,02,22,05,16,-2.00
2018,02,22,05,17,-2.00
2018,02,22,05,18,-2.10
2018,02,22,05,19,-2.10
2018,02,22,05,20,-2.10
2018,02,22,05,21,-2.10
2018,02,22,05,22,-2.10
2018,02,22,05,23,-2.10
2018,02,22,05,24,-2.10
2018,02,22,05,25,-2.10
2018,02,22,05,26,-2.10
2018,02,22,05,27,-2.10
2018,02,22,05,28,-2.10
2018,02,22,05,29,-2.00
2018,02,22,05,30,-2.00
2018,02,22,05,31,-2.00
2018,02,22,05,32,-2.00
2018,02,22,05,33,-1.90
2018,02,22,05,34,-1.90
2018,02,22,05,35,-1.90
2018,02,22,05,36,-1.90
2018,02,22,05,37,-1.90
2018,02,22,05,38,-1.90
2018,02,22,05,39,-1.80
2018,02,22,05,40,-1.80
2018,02,22,05,41,-1.80
2018,02,22,05,42,-1.80
2018,02,22,05,43,-1.90
2018,02,22,05,44,-1.90
2018,02,22,05,45,-1.90
2018,02,22,05,46,-1.90
2018,02,22,05,47,-1.90
2018,02,22,05,48,-1.90
2018,02,22,05,49,-1.90
2018,02,22,05,50,-1.90
2018,02,22,05,51,-1.90
2018,02,22,05,52,-1.90
2018,02,22,05,53,-1.90
2018,02,22,05,54,-1.90
2018,02,22,05,55,-1.90
2018,02,22,05,56,-1.90
2018,02,22,05,57,-1.90
2018,02,22,05,58,-1.90
2018,02,22,05,59,-1.90
2018,02,22,06,00,-1.90
2018,02,22,06,01,-1.90
2018,02,22,06,02,-1.90
2018,02,22,06,03,-1.90
2018,02,22,06,04,-1.90
2018,02,22,06,05,-1.90
2018,02,22,06,06,-1.90
2018,02,22,06,07,-1.80
2018,02,22,06,08,-1.80
2018,02,22,06,09,-1.80
2018,02,22,06,10,-1.80
2018,02,22,06,11,-1.80
2018,02,22,06,12,-1.80
2018,02,22,06,13,-1.80
2018,02,22,06,14,-1.80
2018,02,22,06,15,-1.80
2018,02,22,06,16,-1.80
2018,02,22,06,17,-1.70
2018,02,22,06,18,-1.70
2018,02,22,06,19,-1.70
2018,02,22,06,20,-1.70
2018,02,22,06,21,-1.70
2018,02,22,06,22,-1.60
2018,02,22,06,23,-1.60
2018,02,22,06,24,-1.60
2018,02,22,06,25,-1.60
2018,02,22,06,26,-1.60
2018,02,22,06,27,-1.60
2018,02,22,06,28,-1.60
2018,02,22,06,29,-1.50
2018,02,22,06,30,-1.50
2018,02,22,06,31,-1.50
2018,02,22,06,32,-1.50
2018,02,22,06,33,-1.50
2018,02,22,06,34,-1.50
2018,02,22,06,35,-1.50
2018,02,22,06,36,-1.50
2018,02,22,06,37,-1.50
2018,02,22,06,38,-1.50
2018,02,22,06,39,-1.50
2018,02,22,06,40,-1.50
2018,02,22,06,41,-1.50
2018,02,22,06,42,-1.50
2018,02,22,06,43,-1.50
2018,02,22,06,44,-1.40
2018,02,22,06,45,-1.40
2018,02,22,06,46,-1.40
2018,02,22,06,47,-1.40
2018,02,22,06,48,-1.40
2018,02,22,06,49,-1.40
2018,02,22,06,50,-1.40
2018,02,22,06,51,-1.40
2018,02,22,06,52,-1.40
2018,02,22,06,53,-1.40
2018,02,22,06,54,-1.40
2018,02,22,06,55,-1.40
2018,02,22,06,56,-1.40
2018,02,22,06,57,-1.40
2018,02,22,06,58,-1.40
2018,02,22,06,59,-1.40
2018,02,22,07,00,-1.40
2018,02,22,07,01,-1.40
2018,02,22,07,02,-1.40
2018,02,22,07,03,-1.40
2018,02,22,07,04,-1.40
2018,02,22,07,05,-1.40
2018,02,22,07,06,-1.40
2018,02,22,07,07,-1.40
2018,02,22,07,08,-1.40
2018,02,22,07,09,-1.40
2018,02,22,07,10,-1.40
2018,02,22,07,11,-1.40
2018,02,22,07,12,-1.40
2018,02,22,07,13,-1.30
2018,02,22,07,14,-1.30
2018,02,22,07,15,-1.30
2018,02,22,07,16,-1.30
2018,02,22,07,17,-1.30
2018,02,22,07,18,-1.20
2018,02,22,07,19,-1.20
2018,02,22,07,20,-1.20
2018,02,22,07,21,-1.20
2018,02,22,07,22,-1.10
2018,02,22,07,23,-1.10
2018,02,22,07,24,-1.10
2018,02,22,07,25,-1.10
2018,02,22,07,26,-1.10
2018,02,22,07,27,-1.10
2018,02,22,07,28,-1.10
2018,02,22,07,29,-1.10
2018,02,22,07,30,-1.10
2018,02,22,07,31,-1.10
2018,02,22,07,32,-1.10
2018,02,22,07,33,-1.00
2018,02,22,07,34,-0.90
2018,02,22,07,35,-0.90
2018,02,22,07,36,-0.90
2018,02,22,07,37,-0.90
2018,02,22,07,38,-0.90
2018,02,22,07,39,-0.90
2018,02,22,07,40,-0.90
2018,02,22,07,41,-0.80
2018,02,22,07,42,-0.80
2018,02,22,07,43,-0.80
2018,02,22,07,44,-0.80
2018,02,22,07,45,-0.70
2018,02,22,07,46,-0.70
2018,02,22,07,47,-0.70
2018,02,22,07,48,-0.70
2018,02,22,07,49,-0.70
2018,02,22,07,50,-0.60
2018,02,22,07,51,-0.60
2018,02,22,07,52,-0.60
2018,02,22,07,53,-0.60
2018,02,22,07,54,-0.60
2018,02,22,07,55,-0.60
2018,02,22,07,56,-0.60
2018,02,22,07,57,-0.50
2018,02,22,07,58,-0.40
2018,02,22,07,59,-0.40
2018,02,22,08,00,-0.40
2018,02,22,08,01,-0.40
2018,02,22,08,02,-0.30
2018,02,22,08,03,-0.30
2018,02,22,08,04,-0.30
2018,02,22,08,05,-0.30
2018,02,22,08,06,-0.30
2018,02,22,08,07,-0.30
2018,02,22,08,08,-0.30
2018,02,22,08,09,-0.20
2018,02,22,08,10,-0.20
2018,02,22,08,11,-0.10
2018,02,22,08,12,-0.10
2018,02,22,08,13,-0.10
2018,02,22,08,14,-0.10
2018,02,22,08,15,-0.10
2018,02,22,08,16,-0.10
2018,02,22,08,17,-0.10
2018,02,22,08,18,0.00
2018,02,22,08,19,0.10
2018,02,22,08,20,0.10
2018,02,22,08,21,0.10
2018,02,22,08,22,0.10
2018,02,22,08,23,0.10
2018,02,22,08,24,0.20
2018,02,22,08,25,0.20
2018,02,22,08,26,0.20
2018,02,22,08,27,0.20
2018,02,22,08,28,0.20
2018,02,22,08,29,0.20
2018,02,22,08,30,0.20
2018,02,22,08,31,0.20
2018,02,22,08,32,0.20
2018,02,22,08,33,0.20
2018,02,22,08,34,0.20
2018,02,22,08,35,0.20
2018,02,22,08,36,0.10
2018,02,22,08,37,0.10
2018,02,22,08,38,0.10
2018,02,22,08,39,0.10
2018,02,22,08,40,0.10
2018,02,22,08,41,0.20
2018,02,22,08,42,0.20
2018,02,22,08,43,0.20
2018,02,22,08,44,0.30
2018,02,22,08,45,0.40
2018,02,22,08,46,0.40
2018,02,22,08,47,0.40
2018,02,22,08,48,0.40
2018,02,22,08,49,0.50
2018,02,22,08,50,0.50
2018,02,22,08,51,0.50
2018,02,22,08,52,0.50
2018,02,22,08,53,0.60
2018,02,22,08,54,0.60
2018,02,22,08,55,0.60
2018,02,22,08,56,0.70
2018,02,22,08,57,0.70
2018,02,22,08,58,0.80
2018,02,22,08,59,0.80
2018,02,22,09,00,0.80
2018,02,22,09,01,0.80
2018,02,22,09,02,0.80
2018,02,22,09,03,0.80
2018,02,22,09,04,0.80
2018,02,22,09,05,0.80
2018,02,22,09,06,0.90
2018,02,22,09,07,0.90
2018,02,22,09,08,0.90
2018,02,22,09,09,0.90
2018,02,22,09,10,0.90
2018,02,22,09,11,0.90
2018,02,22,09,12,0.90
2018,02,22,09,13,0.90
2018,02,22,09,14,1.00
2018,02,22,09,15,1.00
2018,02,22,09,16,1.00
2018,02,22,09,17,1.00
2018,02,22,09,18,1.00
2018,02,22,09,19,1.00
2018,02,22,09,20,1.00
2018,02,22,09,21,1.10
2018,02,22,09,22,1.10
2018,02,22,09,23,1.10
2018,02,22,09,24,1.20
2018,02,22,09,25,1.20
2018,02,22,09,26,1.20
2018,02,22,09,27,1.20
2018,02,22,09,28,1.30
2018,02,22,09,29,1.30
2018,02,22,09,30,1.30
2018,02,22,09,31,1.30
2018,02,22,09,32,1.30
2018,02,22,09,33,1.40
2018,02,22,09,34,1.40
2018,02,22,09,35,1.40
2018,02,22,09,36,1.40
2018,02,22,09,37,1.30
2018,02,22,09,38,1.30
2018,02,22,09,39,1.30
2018,02,22,09,40,1.30
2018,02,22,09,41,1.30
2018,02,22,09,42,1.30
2018,02,22,09,43,1.30
2018,02,22,09,44,1.30
2018,02,22,09,45,1.30
2018,02,22,09,46,1.30
2018,02,22,09,47,1.30
2018,02,22,09,48,1.30
2018,02,22,09,49,1.30
2018,02,22,09,50,1.30
2018,02,22,09,51,1.30
2018,02,22,09,52,1.30
2018,02,22,09,53,1.30
2018,02,22,09,54,1.40
2018,02,22,09,55,1.40
2018,02,22,09,56,1.30
2018,02,22,09,57,1.40
2018,02,22,09,58,1.40
2018,02,22,09,59,1.40
2018,02,22,10,00,1.40
2018,02,22,10,01,1.40
2018,02,22,10,02,1.40
2018,02,22,10,03,1.40
2018,02,22,10,04,1.50
2018,02,22,10,05,1.50
2018,02,22,10,06,1.50
2018,02,22,10,07,1.50
2018,02,22,10,08,1.50
2018,02,22,10,09,1.40
2018,02,22,10,10,1.40
2018,02,22,10,11,1.40
2018,02,22,10,12,1.40
2018,02,22,10,13,1.40
2018,02,22,10,14,1.40
2018,02,22,10,15,1.40
2018,02,22,10,16,1.30
2018,02,22,10,17,1.40
2018,02,22,10,18,1.40
2018,02,22,10,19,1.40
2018,02,22,10,20,1.40
2018,02,22,10,21,1.40
2018,02,22,10,22,1.50
2018,02,22,10,23,1.50
2018,02,22,10,24,1.50
2018,02,22,10,25,1.50
2018,02,22,10,26,1.50
2018,02,22,10,27,1.50
2018,02,22,10,28,1.50
2018,02,22,10,29,1.40
2018,02,22,10,30,1.50
2018,02,22,10,31,1.50
2018,02,22,10,32,1.50
2018,02,22,10,33,1.60
2018,02,22,10,34,1.60
2018,02,22,10,35,1.60
2018,02,22,10,36,1.60
2018,02,22,10,37,1.70
2018,02,22,10,38,1.70
2018,02,22,10,39,1.70
2018,02,22,10,40,1.70
2018,02,22,10,41,1.70
2018,02,22,10,42,1.70
2018,02,22,10,43,1.70
2018,02,22,10,44,1.70
2018,02,22,10,45,1.80
2018,02,22,10,46,1.70
2018,02,22,10,47,1.70
2018,02,22,10,48,1.60
2018,02,22,10,49,1.60
2018,02,22,10,50,1.60
2018,02,22,10,51,1.50
2018,02,22,10,52,1.60
2018,02,22,10,53,1.60
2018,02,22,10,54,1.60
2018,02,22,10,55,1.60
2018,02,22,10,56,1.60
2018,02,22,10,57,1.60
2018,02,22,10,58,1.60
2018,02,22,10,59,1.50
2018,02,22,11,00,1.50
2018,02,22,11,01,1.50
2018,02,22,11,02,1.50
2018,02,22,11,03,1.40
2018,02,22,11,04,1.50
2018,02,22,11,05,1.50
2018,02,22,11,06,1.50
2018,02,22,11,07,1.50
2018,02,22,11,08,1.50
2018,02,22,11,09,1.60
2018,02,22,11,10,1.60
2018,02,22,11,11,1.60
2018,02,22,11,12,1.50
2018,02,22,11,13,1.50
2018,02,22,11,14,1.60
2018,02,22,11,15,1.60
2018,02,22,11,16,1.60
2018,02,22,11,17,1.60
2018,02,22,11,18,1.60
2018,02,22,11,19,1.60
2018,02,22,11,20,1.60
2018,02,22,11,21,1.70
2018,02,22,11,22,1.70
2018,02,22,11,23,1.70
2018,02,22,11,24,1.70
2018,02,22,11,25,1.70
2018,02,22,11,26,1.80
2018,02,22,11,27,1.80
2018,02,22,11,28,1.80
2018,02,22,11,29,1.80
2018,02,22,11,30,1.80
2018,02,22,11,31,1.80
2018,02,22,11,32,1.80
2018,02,22,11,33,1.80
2018,02,22,11,34,1.80
2018,02,22,11,35,1.80
2018,02,22,11,36,1.80
2018,02,22,11,37,1.80
2018,02,22,11,38,1.90
2018,02,22,11,39,1.90
2018,02,22,11,40,2.00
2018,02,22,11,41,2.00
2018,02,22,11,42,2.00
2018,02,22,11,43,2.00
2018,02,22,11,44,2.00
2018,02,22,11,45,2.00
2018,02,22,11,46,2.10
2018,02,22,11,47,2.10
2018,02,22,11,48,2.10
2018,02,22,11,49,2.10
2018,02,22,11,50,2.00
2018,02,22,11,51,2.00
2018,02,22,11,52,1.90
2018,02,22,11,53,1.90
2018,02,22,11,54,2.00
2018,02,22,11,55,2.00
2018,02,22,11,56,2.00
2018,02,22,11,57,2.00
2018,02,22,11,58,2.00
2018,02,22,11,59,2.10
2018,02,22,12,00,2.10
2018,02,22,12,01,2.10
2018,02,22,12,02,2.10
2018,02,22,12,03,2.10
2018,02,22,12,04,2.00
2018,02,22,12,05,2.00
2018,02,22,12,06,2.00
2018,02,22,12,07,2.00
2018,02,22,12,08,2.00
2018,02,22,12,09,2.00
2018,02,22,12,10,2.10
2018,02,22,12,11,2.00
2018,02,22,12,12,2.00
2018,02,22,12,13,2.10
2018,02,22,12,14,2.10
2018,02,22,12,15,2.00
2018,02,22,12,16,2.00
2018,02,22,12,17,2.00
2018,02,22,12,18,2.00
2018,02,22,12,19,2.10
2018,02,22,12,20,2.10
2018,02,22,12,21,2.20
2018,02,22,12,22,2.20
2018,02,22,12,23,2.20
2018,02,22,12,24,2.20
2018,02,22,12,25,2.20
2018,02,22,12,26,2.20
2018,02,22,12,27,2.20
2018,02,22,12,28,2.20
2018,02,22,12,29,2.20
2018,02,22,12,30,2.20
2018,02,22,12,31,2.10
2018,02,22,12,32,2.10
2018,02,22,12,33,2.10
2018,02,22,12,34,2.10
2018,02,22,12,35,2.10
2018,02,22,12,36,2.10
2018,02,22,12,37,2.10
2018,02,22,12,38,2.10
2018,02,22,12,39,2.10
2018,02,22,12,40,2.00
2018,02,22,12,41,2.00
2018,02,22,12,42,2.00
2018,02,22,12,43,2.10
2018,02,22,12,44,2.10
2018,02,22,12,45,2.10
2018,02,22,12,46,2.10
2018,02,22,12,47,2.20
2018,02,22,12,48,2.20
2018,02,22,12,49,2.20
2018,02,22,12,50,2.20
2018,02,22,12,51,2.20
2018,02,22,12,52,2.30
2018,02,22,12,53,2.30
2018,02,22,12,54,2.30
2018,02,22,12,55,2.30
2018,02,22,12,56,2.30
2018,02,22,12,57,2.40
2018,02,22,12,58,2.40
2018,02,22,12,59,2.40
2018,02,22,13,00,2.50
2018,02,22,13,01,2.50
2018,02,22,13,02,2.50
2018,02,22,13,03,2.50
2018,02,22,13,04,2.50
2018,02,22,13,05,2.60
2018,02,22,13,06,2.60
2018,02,22,13,07,2.60
2018,02,22,13,08,2.60
2018,02,22,13,09,2.60
2018,02,22,13,10,2.60
2018,02,22,13,11,2.50
2018,02,22,13,12,2.50
2018,02,22,13,13,2.40
2018,02,22,13,14,2.30
2018,02,22,13,15,2.30
2018,02,22,13,16,2.30
2018,02,22,13,17,2.40
2018,02,22,13,18,2.40
2018,02,22,13,19,2.40
2018,02,22,13,20,2.40
2018,02,22,13,21,2.30
2018,02,22,13,22,2.30
2018,02,22,13,23,2.30
2018,02,22,13,24,2.30
2018,02,22,13,25,2.30
2018,02,22,13,26,2.30
2018,02,22,13,27,2.30
2018,02,22,13,28,2.30
2018,02,22,13,29,2.30
2018,02,22,13,30,2.30
2018,02,22,13,31,2.30
2018,02,22,13,32,2.30
2018,02,22,13,33,2.30
2018,02,22,13,34,2.40
2018,02,22,13,35,2.40
2018,02,22,13,36,2.50
2018,02,22,13,37,2.50
2018,02,22,13,38,2.50
2018,02,22,13,39,2.50
2018,02,22,13,40,2.60
2018,02,22,13,41,2.60
2018,02,22,13,42,2.60
2018,02,22,13,43,2.70
2018,02,22,13,44,2.70
2018,02,22,13,45,2.70
2018,02,22,13,46,2.70
2018,02,22,13,47,2.70
2018,02,22,13,48,2.70
2018,02,22,13,49,2.70
2018,02,22,13,50,2.70
2018,02,22,13,51,2.70
2018,02,22,13,52,2.70
2018,02,22,13,53,2.70
2018,02,22,13,54,2.60
2018,02,22,13,55,2.50
2018,02,22,13,56,2.50
2018,02,22,13,57,2.50
2018,02,22,13,58,2.50
2018,02,22,13,59,2.50
2018,02,22,14,00,2.50
2018,02,22,14,01,2.50
2018,02,22,14,02,2.40
2018,02,22,14,03,2.40
2018,02,22,14,04,2.40
2018,02,22,14,05,2.40
2018,02,22,14,06,2.50
2018,02,22,14,07,2.50
2018,02,22,14,08,2.50
2018,02,22,14,09,2.50
2018,02,22,14,10,2.50
2018,02,22,14,11,2.50
2018,02,22,14,12,2.60
2018,02,22,14,13,2.60
2018,02,22,14,14,2.60
2018,02,22,14,15,2.60
2018,02,22,14,16,2.60
2018,02,22,14,17,2.70
2018,02,22,14,18,2.70
2018,02,22,14,19,2.70
2018,02,22,14,20,2.70
2018,02,22,14,21,2.70
2018,02,22,14,22,2.70
2018,02,22,14,23,2.70
2018,02,22,14,24,2.70
2018,02,22,14,25,2.70
2018,02,22,14,26,2.70
2018,02,22,14,27,2.70
2018,02,22,14,28,2.70
2018,02,22,14,29,2.70
2018,02,22,14,30,2.70
2018,02,22,14,31,2.70
2018,02,22,14,32,2.70
2018,02,22,14,33,2.70
2018,02,22,14,34,2.70
2018,02,22,14,35,2.80
2018,02,22,14,36,2.80
2018,02,22,14,37,2.80
2018,02,22,14,38,2.80
2018,02,22,14,39,2.80
2018,02,22,14,40,2.80
2018,02,22,14,41,2.80
2018,02,22,14,42,2.80
2018,02,22,14,43,2.80
2018,02,22,14,44,2.80
2018,02,22,14,45,2.80
2018,02,22,14,46,2.80
2018,02,22,14,47,2.80
2018,02,22,14,48,2.80
2018,02,22,14,49,2.80
2018,02,22,14,50,2.80
2018,02,22,14,51,2.70
2018,02,22,14,52,2.70
2018,02,22,14,53,2.70
2018,02,22,14,54,2.70
2018,02,22,14,55,2.80
2018,02,22,14,56,2.80
2018,02,22,14,57,2.80
2018,02,22,14,58,2.90
2018,02,22,14,59,2.80
2018,02,22,15,00,2.80
2018,02,22,15,01,2.90
2018,02,22,15,02,2.90
2018,02,22,15,03,2.90
2018,02,22,15,04,2.90
2018,02,22,15,05,2.90
2018,02,22,15,06,2.90
2018,02,22,15,07,2.90
2018,02,22,15,08,2.90
2018,02,22,15,09,2.90
2018,02,22,15,10,2.90
2018,02,22,15,11,2.90
2018,02,22,15,12,3.00
2018,02,22,15,13,3.10
2018,02,22,15,14,3.00
2018,02,22,15,15,2.90
2018,02,22,15,16,2.90
2018,02,22,15,17,2.90
2018,02,22,15,18,2.90
2018,02,22,15,19,2.90
2018,02,22,15,20,2.90
2018,02,22,15,21,2.90
2018,02,22,15,22,2.90
2018,02,22,15,23,2.90
2018,02,22,15,24,2.90
2018,02,22,15,25,2.90
2018,02,22,15,26,2.90
2018,02,22,15,27,2.90
2018,02,22,15,28,2.90
2018,02,22,15,29,2.90
2018,02,22,15,30,3.00
2018,02,22,15,31,3.10
2018,02,22,15,32,3.10
2018,02,22,15,33,3.10
2018,02,22,15,34,3.10
2018,02,22,15,35,3.10
2018,02,22,15,36,3.10
2018,02,22,15,37,3.10
2018,02,22,15,38,3.10
2018,02,22,15,39,3.10
2018,02,22,15,40,3.10
2018,02,22,15,41,3.10
2018,02,22,15,42,3.10
2018,02,22,15,43,3.10
2018,02,22,15,44,3.10
2018,02,22,15,45,3.10
2018,02,22,15,46,3.10
2018,02,22,15,47,3.10
2018,02,22,15,48,3.00
2018,02,22,15,49,3.10
2018,02,22,15,50,2.90
2018,02,22,15,51,2.90
2018,02,22,15,52,2.90
2018,02,22,15,53,2.90
2018,02,22,15,54,2.90
2018,02,22,15,55,2.90
2018,02,22,15,56,2.90
2018,02,22,15,57,2.90
2018,02,22,15,58,2.90
2018,02,22,15,59,2.90
2018,02,22,16,00,2.90
2018,02,22,16,01,2.90
2018,02,22,16,02,2.90
2018,02,22,16,03,2.90
2018,02,22,16,04,2.90
2018,02,22,16,05,2.90
2018,02,22,16,06,2.90
2018,02,22,16,07,2.90
2018,02,22,16,08,2.90
2018,02,22,16,09,2.90
2018,02,22,16,10,2.90
2018,02,22,16,11,2.90
2018,02,22,16,12,2.90
2018,02,22,16,13,2.90
2018,02,22,16,14,2.90
2018,02,22,16,15,2.90
2018,02,22,16,16,2.90
2018,02,22,16,17,2.90
2018,02,22,16,18,2.90
2018,02,22,16,19,2.90
2018,02,22,16,20,2.90
2018,02,22,16,21,2.90
2018,02,22,16,22,2.90
2018,02,22,16,23,2.90
2018,02,22,16,24,3.00
2018,02,22,16,25,3.00
2018,02,22,16,26,2.90
2018,02,22,16,27,2.90
2018,02,22,16,28,2.90
2018,02,22,16,29,2.90
2018,02,22,16,30,2.90
2018,02,22,16,31,2.90
2018,02,22,16,32,2.90
2018,02,22,16,33,2.90
2018,02,22,16,34,2.90
2018,02,22,16,35,2.90
2018,02,22,16,36,2.90
2018,02,22,16,37,2.90
2018,02,22,16,38,2.90
2018,02,22,16,39,2.90
2018,02,22,16,40,2.90
2018,02,22,16,41,2.90
2018,02,22,16,42,2.90
2018,02,22,16,43,2.90
2018,02,22,16,44,2.90
2018,02,22,16,45,2.90
2018,02,22,16,46,2.90
2018,02,22,16,47,2.90
2018,02,22,16,48,2.90
2018,02,22,16,49,2.90
2018,02,22,16,50,2.90
2018,02,22,16,51,2.90
2018,02,22,16,52,2.90
2018,02,22,16,53,2.90
2018,02,22,16,54,2.90
2018,02,22,16,55,2.90
2018,02,22,16,56,2.90
2018,02,22,16,57,2.80
2018,02,22,16,58,2.80
2018,02,22,16,59,2.80
2018,02,22,17,00,2.80
2018,02,22,17,01,2.80
2018,02,22,17,02,2.80
2018,02,22,17,03,2.80
2018,02,22,17,04,2.80
2018,02,22,17,05,2.80
2018,02,22,17,06,2.80
2018,02,22,17,07,2.70
2018,02,22,17,08,2.70
2018,02,22,17,09,2.70
2018,02,22,17,10,2.70
2018,02,22,17,11,2.70
2018,02,22,17,12,2.70
2018,02,22,17,13,2.70
2018,02,22,17,14,2.70
2018,02,22,17,15,2.70
2018,02,22,17,16,2.70
2018,02,22,17,17,2.70
2018,02,22,17,18,2.70
2018,02,22,17,19,2.70
2018,02,22,17,20,2.70
2018,02,22,17,21,2.60
2018,02,22,17,22,2.60
2018,02,22,17,23,2.60
2018,02,22,17,24,2.60
2018,02,22,17,25,2.60
2018,02,22,17,26,2.60
2018,02,22,17,27,2.50
2018,02,22,17,28,2.50
2018,02,22,17,29,2.50
2018,02,22,17,30,2.50
2018,02,22,17,31,2.50
2018,02,22,17,32,2.50
2018,02,22,17,33,2.40
2018,02,22,17,34,2.40
2018,02,22,17,35,2.40
2018,02,22,17,36,2.40
2018,02,22,17,37,2.40
2018,02,22,17,38,2.40
2018,02,22,17,39,2.30
2018,02,22,17,40,2.30
2018,02,22,17,41,2.30
2018,02,22,17,42,2.30
2018,02,22,17,43,2.20
2018,02,22,17,44,2.20